Regional Weather Roundup
Issued by NWS Upton, NY

Current Version | Previous Version | Graphics & Text | Print | Product List | Glossary Off
Versions: 1 2 3 4 5 6 7 8 9 10 11 12 13 14 15 16 17 18 19 20 21 22 23 24 25 26 27 28 29 30 31 32 33 34 35 36 37 38 39 40 41 42 43 44 45 46 47 48 49 50

685
ASUS41 KOKX 240307
RWROKX

REGIONAL WEATHER ROUNDUP
NATIONAL WEATHER SERVICE NEW YORK NY
1100 PM EDT THU MAR 23 2017

NOTE: "FAIR" INDICATES FEW OR NO CLOUDS BELOW 12,000 FEET WITH NO
SIGNIFICANT WEATHER AND/OR OBSTRUCTIONS TO VISIBILITY.

NYZ071-072-176-178-NJZ106-104-240400-
NEW YORK CITY METRO AREA

CITY           SKY/WX    TMP DP  RH WIND       PRES   REMARKS
Central Park   CLEAR     38   7  27 CALM      30.57F
Wall St Helipt CLEAR     38  25  59 S3        30.57F
LaGuardia APRT PTCLDY    39  23  52 S8        30.55F WCI  33
Kennedy INTL   PTCLDY    37  27  67 S7        30.57F WCI  32
Breezy Point     N/A     37 N/A N/A S7          N/A  WCI  32
Newark/Liberty PTCLDY    40   5  23 CALM      30.55F
Teterboro      CLEAR     34  13  41 CALM      30.55F
$$

NYZ177-179-078>081-240400-
LONG ISLAND NEW YORK

CITY           SKY/WX    TMP DP  RH WIND       PRES   REMARKS
Jones Beach      N/A     37 N/A N/A SW5         N/A  WCI  34
Matinecock PT  NOT AVBL
Farmingdale    CLEAR     34  23  64 CALM      30.57F
MacArthur/ISP  CLEAR     31  22  69 S3        30.57R
Shirley        CLEAR     28  19  69 CALM      30.58S
Westhampton    CLEAR     17   3  54 CALM      30.59R
East Hampton     N/A     20   8  58 CALM      30.57S
Montauk          N/A     34  19  54 CALM      30.58R
$$

NYZ052-065-067-240400-
HUDSON VALLEY

CITY           SKY/WX    TMP DP  RH WIND       PRES   REMARKS
White Plains   CLEAR     29  11  47 S5        30.53F WCI  24
Newburgh       CLEAR     32  12  43 W5        30.53F WCI  27
Montgomery     CLEAR     26  17  68 CALM      30.50F
Poughkeepsie   PTCLDY    26  13  57 CALM      30.52F
Albany         MOCLDY    26  10  50 CALM      30.52F
$$

NJZ001-105-106-008-010-013-015-019>022-104-240400-
NEW JERSEY

CITY           SKY/WX    TMP DP  RH WIND       PRES   REMARKS
Newark/Liberty PTCLDY    40   5  23 CALM      30.55F
Teterboro      CLEAR     34  13  41 CALM      30.55F
Caldwell       CLEAR     30  13  49 CALM      30.55F
Somerville     PTCLDY    26  16  65 CALM      30.53F
Linden           N/A     35  16  45 CALM      30.56F
Sussex         CLEAR     24  16  71 CALM      30.51F
Andover          N/A     26  17  68 CALM      30.51F
Trenton        CLEAR     32  13  45 SE3       30.54F
Millville      CLEAR     26  19  74 CALM      30.59R
Atlantic City  CLEAR     34  15  46 SW5       30.59R WCI  30
Wrightstown    CLEAR     29  13  52 S3        30.54F
Toms River     PTCLDY    23  15  71 CALM      30.59R
Belmar         CLEAR     33  23  66 S6        30.57F WCI  28
$$

PAZ047>061-062-071-240400-
EASTERN PENNSYLVANIA

CITY           SKY/WX    TMP DP  RH WIND       PRES   REMARKS
Philadelphia   CLEAR     37  16  42 S7        30.57F WCI  32
Allentown      CLEAR     29  13  51 N3        30.52F
Scranton       CLOUDY    30  13  49 NE5       30.46F WCI  25
$$

CTZ002-004>006-009-010-012-RIZ004-006-007-MAZ004-011-015-240400-
SOUTHERN NEW ENGLAND
 IN CT

CITY           SKY/WX    TMP DP  RH WIND       PRES   REMARKS
Bradley INTL   PTCLDY    29   6  38 S3        30.54F
Hartford       CLEAR     26  15  63 SE7       30.56F WCI  18
Danbury        CLEAR     24  13  62 CALM      30.54F
Wtrbury/Oxford CLEAR     25   3  39 CALM      30.52F
Bridgeport     CLEAR     32  14  47 CALM      30.56F
Meriden        CLEAR     25  15  66 CALM      30.56S
New Haven      CLEAR     25  14  63 CALM      30.56F
Chester          N/A     28   1  31 CALM      30.54F
Groton         CLEAR     28  16  60 CALM      30.56S
Wilimantic     CLEAR     27  12  53 CALM      30.56R

 IN RI

CITY           SKY/WX    TMP DP  RH WIND       PRES   REMARKS
Providence     CLEAR     29   3  33 W6        30.55R WCI  23
Block Island   CLEAR     34   8  33 NW8       30.57R WCI  27
Westerly       CLEAR     27   7  42 W3        30.57R
 IN MA

CITY           SKY/WX    TMP DP  RH WIND       PRES   REMARKS
Boston         CLEAR     33   4  29 NW6       30.53S WCI  28
Worcester      CLEAR     26   1  34 W10       30.47F WCI  16
Westfield      CLEAR     23  11  60 CALM      30.52F
Provincetown   CLEAR     35  15  44 W13       30.53R WCI  26
Nantucket      CLEAR     32  11  41 W8        30.54R WCI  25
$$

ANZ330-335-338-340-345-350-353-355-240400-
COASTAL MARINE OBSERVATIONS


STATION/POSITION TIME  SKY/WX   TEMP    WIND        PRES    VSBY  WAVE
                                AIR SEA DIR/SP/G                  HT/PER
                 (UTC)          (F)     (DEG/KT/KT) (MB)    (MI)  (FT/S)
NY HARB ENTRANCE 0150            39 41  190/ 12/ 14 1035.9          2/ 3
20 S FIRE ISLAND 0250            38 40  240/ 10/ 12 1035.2          2/ 4
GREAT SOUTH BAY  NOT AVBL
23 SSW MONTAUK P 0150            39 42              1035.7          2/ 4
15 E BARNEGAT LI 0230               42                N/A           2/ 5
HUDSON CANYON    0150            37 44  250/ 10/ 14 1035.6          2/ 4
KINGS POINT      0236            36 38              1034.9
EXECUTION ROCKS  NOT AVBL
CENTRAL LI SOUND 0215            38     250/  4/  4   N/A           1/ 3
EASTERN LI SOUND NOT AVBL
ROBBINS REEF     0236            37     170/  8/ 10 1035.1
$$


>>>>>>>>>>>>>>>>>>>>>>>>>>>> KEY <<<<<<<<<<<<<<<<<<<<<<<<<<<
>                                                          <
>     SKY/WX - Sky Condition/Present Weather               <
>     TMP    - Temperature in Fahrenheit                   <
>     DP     - Dew Point in Fahrenheit                     <
>     RH     - Relative Humidity in Percent                <
>     WIND   - Direction (from) and Speed in MPH           <
>     PRES   - Mean Sea Level Pressure (inches of Hg)      <
>     WCI    - Wind Chill Index                            <
>     VSB    - VISIBILITY IN MILES                         <
>     HX     - HEAT INDEX                                  <
>     TC     - TEMPERATURE IN CELSIUS                      <
>     VRB    - VARIABLE WIND DIRECTION                     <
>                                                          <
>>>>>>>>>>>>>>>>>>>>>>>>>>>> KEY <<<<<<<<<<<<<<<<<<<<<<<<<<<




USA.gov is the U.S. government's official web portal to all federal, state and local government web resources and services.